This demonstration page uses our WeatherBlox Daily Observations layout. Learn more.

Left ArrowRight Arrow

Hourly Observations for April 18, 2020

Temp ( °F °C ) Dew Point ( °F °C ) Humidity (%) Winds ( mph kmh ) Pressure ( in mb ) Visibility ( mi km ) Precip ( " mm )
12:15 am 00:15 Clear 37 2.5 22 -5.6 56 56 SSW 8 13 30.06 1018 10 16.0934 0 0
12:35 am 00:35 Clear 36 2.4 22 -5.6 56 56 SW 8 13 30.05 1018 10 16.0934 0 0
12:55 am 00:55 Clear 38 3.2 22 -5.6 53 53 SSW 8 13 30.03 1017 10 16.0934 0 0
1:15 am 01:15 Clear 37 2.9 22 -5.6 54 54 SSW 8 13 30.04 1017 10 16.0934 0 0
1:35 am 01:35 Clear 37 2.7 22 -5.6 55 55 SSW 7 11 30.03 1017 10 16.0934 0 0
1:55 am 01:55 Clear 37 2.6 22 -5.8 54 54 SSW 7 11 30.02 1017 10 16.0934 0 0
2:15 am 02:15 Clear 36 2 22 -5.8 57 57 SW 7 11 30.02 1016 10 16.0934 0 0
2:35 am 02:35 Clear 37 2.5 22 -5.8 55 55 SSW 6 9 30 1016 10 16.0934 0 0
2:55 am 02:55 Clear 36 2 21 -6 56 56 SSW 6 9 30.01 1016 10 16.0934 0 0
3:15 am 03:15 Clear 35 1.9 21 -6.2 55 55 SSW 9 15 30.01 1016 10 16.0934 0 0
3:35 am 03:35 Clear 35 1.8 21 -6 57 57 SSW 9 15 30 1016 10 16.0934 0 0
3:50 am 03:50 Clear 34 1.3 22 -5.8 60 60 SSW 7 11 30 1016 10 16.0934 0 0
4:15 am 04:15 Clear 34 1.2 22 -5.6 61 61 SW 9 15 29.99 1016 10 16.0934 0 0
4:35 am 04:35 Clear 34 1.3 22 -5.6 60 60 SW 9 15 29.99 1016 10 16.0934 0 0
4:55 am 04:55 Clear 34 1.3 22 -5.6 60 60 SW 8 13 29.99 1016 10 16.0934 0 0
5:15 am 05:15 Clear 34 1.2 22 -5.5 61 61 SW 9 15 29.99 1016 10 16.0934 0 0
5:35 am 05:35 Clear 35 1.7 23 -5.1 61 61 SW 9 15 29.98 1015 10 16.0934 0 0
5:55 am 05:55 Clear 37 2.8 24 -4.7 58 58 SW 12 19 29.96 1014 10 16.0934 0 0
6:15 am 06:15 Clear 37 2.5 24 -4.6 60 60 SW 10 17 29.96 1015 10 16.0934 0 0
6:35 am 06:35 Clear 37 2.5 24 -4.5 60 60 SW 13 20 29.96 1015 10 16.0934 0 0
6:55 am 06:55 Sunny 35 1.5 24 -4.3 66 66 SW 8 13 29.97 1015 10 16.0934 0 0
7:15 am 07:15 Sunny 34 1.1 24 -4.5 67 67 SW 8 13 29.97 1015 10 16.0934 0 0
7:35 am 07:35 Sunny 35 1.8 25 -3.7 67 67 SW 9 15 29.96 1014 10 16.0934 0 0
7:55 am 07:55 Sunny 38 3.1 27 -2.7 66 66 SW 14 22 29.95 1014 10 16.0934 0 0
8:15 am 08:15 Sunny 40 4.4 28 -2.1 63 63 SW 14 22 29.93 1014 10 16.0934 0 0
8:35 am 08:35 Sunny 42 5.3 29 -1.5 62 62 SW 16 26 29.93 1013 10 16.0934 0 0
8:55 am 08:55 Sunny 44 6.5 30 -1.2 58 58 SW 14 22 29.9 1013 10 16.0934 0 0
9:15 am 09:15 Sunny 46 7.9 31 -0.6 55 55 SW 13 20 29.88 1012 10 16.0934 0 0
9:35 am 09:35 Sunny 48 9 31 -0.6 51 51 WSW 13 20 29.86 1011 10 16.0934 0 0
9:55 am 09:55 Sunny 52 10.9 31 -0.3 46 46 WSW 13 20 29.84 1011 10 16.0934 0 0
10:15 am 10:15 Sunny 53 11.5 32 -0.2 45 45 WSW 12 19 29.84 1010 10 16.0934 0 0
10:35 am 10:35 Sunny 54 12.4 31 -0.3 42 42 WSW 12 19 29.83 1010 10 16.0934 0 0
10:55 am 10:55 Sunny 57 13.7 32 0.2 40 40 SW 10 17 29.82 1010 10 16.0934 0 0
11:15 am 11:15 Sunny 58 14.5 32 0.2 38 38 SW 10 17 29.8 1009 10 16.0934 0 0
11:35 am 11:35 Sunny 59 15.1 32 0 36 36 SSW 12 19 29.8 1009 10 16.0934 0 0
11:55 am 11:55 Sunny 61 16.1 32 0 34 34 SW 13 20 29.78 1008 10 16.0934 0 0
12:15 pm 12:15 Sunny 63 17.3 32 0.1 31 31 SSW 12 19 29.76 1008 10 16.0934 0 0
12:35 pm 12:35 Sunny 65 18.4 32 -0.1 29 29 SSW 8 13 29.74 1007 10 16.0934 0 0
12:55 pm 12:55 Sunny 66 18.8 30 -1 26 26 S 6 9 29.73 1007 10 16.0934 0 0
1:15 pm 13:15 Sunny 67 19.6 32 0.2 27 27 WSW 6 9 29.71 1006 10 16.0934 0 0
1:35 pm 13:35 Sunny 68 19.9 33 0.3 27 27 WSW 8 13 29.69 1005 10 16.0934 0 0
1:55 pm 13:55 Sunny 69 20.6 33 0.4 26 26 SSW 6 9 29.67 1005 10 16.0934 0 0
2:15 pm 14:15 Sunny 70 21.1 32 -0.1 24 24 WSW 8 13 29.66 1004 10 16.0934 0 0
2:35 pm 14:35 Sunny 71 21.6 32 -0.2 23 23 SW 8 13 29.65 1004 10 16.0934 0 0
2:55 pm 14:55 Sunny 71 21.5 28 -2 21 21 WSW 7 11 29.65 1004 10 16.0934 0 0
3:15 pm 15:15 Sunny 71 21.8 28 -2.1 20 20 WSW 10 17 29.63 1003 10 16.0934 0 0
3:35 pm 15:35 Sunny 71 21.8 26 -3.5 18 18 WSW 9 15 29.62 1003 10 16.0934 0 0
3:55 pm 15:55 Sunny 71 21.9 26 -3.2 18 18 W 7 11 29.61 1003 10 16.0934 0 0
4:15 pm 16:15 Sunny 73 22.5 25 -3.9 17 17 WSW 3 6 29.6 1002 10 16.0934 0 0
4:35 pm 16:35 Sunny 72 22.2 23 -5.1 16 16 WNW 8 13 29.6 1002 10 16.0934 0 0
4:55 pm 16:55 Sunny 72 22.4 22 -5.3 15 15 W 6 9 29.59 1002 10 16.0934 0 0
5:15 pm 17:15 Sunny 71 21.8 22 -5.3 16 16 W 9 15 29.59 1002 10 16.0934 0 0
5:35 pm 17:35 Sunny 71 21.5 21 -6.3 15 15 WNW 3 6 29.6 1002 10 16.0934 0 0
5:55 pm 17:55 Sunny 71 21.4 22 -5.3 16 16 NW 6 9 29.6 1002 10 16.0934 0 0
6:15 pm 18:15 Sunny 70 21.1 21 -6 16 16 Calm 29.6 1002 10 16.0934 0 0
6:35 pm 18:35 Sunny 70 21 22 -5.4 16 16 WNW 6 9 29.6 1002 10 16.0934 0 0
6:55 pm 18:55 Sunny 69 20.7 22 -5.5 17 17 Calm 29.6 1002 10 16.0934 0 0
7:15 pm 19:15 Sunny 69 20.6 23 -5 17 17 Calm 29.6 1002 10 16.0934 0 0
7:35 pm 19:35 Sunny 67 19.5 23 -5.1 19 19 Calm 29.61 1003 10 16.0934 0 0
7:55 pm 19:55 Sunny 65 18.3 28 -2.4 25 25 NE 3 6 29.63 1003 10 16.0934 0 0
8:15 pm 20:15 Sunny 63 17.1 28 -2.2 27 27 Calm 29.63 1003 10 16.0934 0 0
8:35 pm 20:35 Clear 62 16.7 26 -3.3 25 25 Calm 29.65 1004 10 16.0934 0 0
8:55 pm 20:55 Clear 58 14.3 29 -1.8 33 33 Calm 29.67 1005 10 16.0934 0 0
9:15 pm 21:15 Clear 56 13.6 29 -1.4 36 36 Calm 29.68 1005 10 16.0934 0 0
9:35 pm 21:35 Clear 52 10.9 28 -2.2 40 40 ENE 7 11 29.71 1006 10 16.0934 0 0
9:55 pm 21:55 Clear 53 11.5 27 -2.7 37 37 ENE 6 9 29.72 1006 10 16.0934 0 0
10:15 pm 22:15 Clear 53 11.4 26 -3.2 36 36 ENE 3 6 29.73 1007 10 16.0934 0 0
10:35 pm 22:35 Clear 50 10.1 27 -2.8 41 41 N 12 19 29.74 1007 10 16.0934 0 0
10:55 pm 22:55 Clear 51 10.3 31 -0.4 48 48 NNE 13 20 29.75 1007 10 16.0934 0 0
11:15 pm 23:15 Clear 50 10 32 -0.1 50 50 NNE 12 19 29.76 1008 10 16.0934 0 0
11:35 pm 23:35 Clear 51 10.6 32 0.1 49 49 NE 16 26 29.77 1008 10 16.0934 0 0
11:55 pm 23:55 Clear 50 9.9 33 0.4 52 52 NE 14 22 29.77 1008 10 16.0934 0 0

Powered by AerisWeather